User: anonymous   Login
Location: Unspecified
(0.0000°N, 0.0000°E)
Time: 19:51:44
(UTC+00:00)
Language:

deb Explorer IX - Orbit

View from above orbital plane
View from above orbital plane
View from above satellite
View from above satellite

Ground track
Ground track

The orbit data is extracted from the following two-line orbital elements,

1    85U 61004C   20195.45370156 +.00001740 +00000-0 +38820-3 0  9998
2    85 038.7697 248.4327 0388412 314.2243 042.7213 14.20800751934799
Epoch (UTC): 13 July 2020 10:53:19
Eccentricity: 0.0388412
inclination: 38.7697°
perigee height: 543 km
apogee height: 1102 km
right ascension of ascending node: 248.4327°
argument of perigee: 314.2243°
revolutions per day: 14.20800751
mean anomaly at epoch: 42.7213°
orbit number at epoch: 93479

The dashed part of the orbit path shows where the satellite is in the earth's shadow,  

DLR